[[{"header":{"parameterUnit":"m.s-1","parameterCategory":1,"la1":30.2991,"la2":30.254,"lo1":-89.0895,"lo2":-89.0444,"dy":0.0017,"dx":0.0017,"nx":28,"ny":28,"refTime":"2023-08-08T09:00:00:Z","depth":0,"parameterNumber":2,"parameterNumberName":"U-component_of_WINDS"},"data":[0,0,0,0,0,0,0,0,0,0,0,0,0,0,0,0,0,0,0,0,0,0,0,0,0,0,0,0,0,0,0,0,0,0,0,0,0,0,0,0,0,0,0,0,0,0,0,0,0,0,0,0,0,0,0,0,0,0,0.3321,0.3321,0,0.3381,0.3381,0.3382,0.3399,0.3399,0.3398,0.3398,0.3463,0.3464,0.3466,0,0,0,0,0,0,0,0,0,0,0,0,0,0.3224,0.3226,0.3321,0.3322,0.3322,0.338,0.3381,0.3382,0.3399,0.3399,0.3398,0.3398,0.3462,0.3464,0.3467,0,0,0,0,0,0,0,0,0,0,0,0,0,0.3273,0.3226,0.3321,0.3338,0.334,0.338,0.3381,0.3382,0.3399,0.3399,0.3398,0.3398,0.3461,0.3464,0.3467,0.3496,0,0,0.3476,0.3478,0,0,0,0,0,0,0,0,0.327,0.3277,0.3334,0.3337,0.3339,0.3382,0.3371,0.3421,0.3399,0.3377,0.3398,0.3398,0.3436,0.3441,0.3454,0.3499,0.3502,0.3477,0.3478,0.348,0.3481,0,0,0,0,0,0,0,0.3267,0.3274,0.3345,0.3335,0.3338,0.3343,0.335,0.338,0.3409,0.3379,0.338,0.3387,0.3437,0.3451,0.3455,0.3503,0.3476,0.3479,0.3481,0.3482,0.3575,0.3575,0,0,0,0,0,0,0.326,0.3271,0.3343,0.3346,0.3303,0.3345,0.3353,0.3369,0.3408,0.3414,0.3387,0.3387,0.3446,0.3452,0.3458,0.3494,0.348,0.3483,0.3484,0.3574,0.3575,0.3575,0,0,0,0,0,0,0.3258,0.3267,0.334,0.3309,0.3319,0.3348,0.3365,0.337,0.3383,0.3415,0.342,0.3395,0.3446,0.3453,0.3486,0.3497,0.3484,0.3487,0.3573,0.3574,0.3575,0.3567,0,0,0,0,0,0,0.3255,0.3266,0.3276,0.3309,0.3321,0.3367,0.3366,0.3372,0.3388,0.3389,0.3424,0.3429,0.3446,0.3481,0.3489,0.3501,0.3489,0.3572,0.3574,0.3575,0.3566,0.3567,0.3568,0,0,0,0,0,0.3252,0.3272,0.3277,0.3285,0.3334,0.3367,0.3374,0.3392,0.3389,0.34,0.342,0.3428,0.3494,0.3485,0.3493,0.3506,0.3572,0.3573,0.3575,0.3566,0.3567,0.3568,0,0,0,0,0,0,0.324,0.3277,0.3282,0.3314,0.3337,0.337,0.3385,0.3392,0.3418,0.3418,0.344,0.3448,0.3479,0.3496,0.3484,0.3536,0.3533,0.3537,0.3524,0.3525,0.3526,0.3521,0.3492,0,0,0,0,0,0.3241,0.3264,0.3295,0.332,0.3331,0.3356,0.3371,0.3383,0.3408,0.3419,0.3441,0.3467,0.3493,0.351,0.3536,0.3569,0.3577,0.3582,0.3583,0.3584,0.3586,0.3605,0.3608,0.358,0.358,0.358,0,0,0.3244,0.3267,0.328,0.3318,0.3338,0.3362,0.3364,0.3389,0.3408,0.3423,0.3454,0.3472,0.3502,0.3535,0.355,0.355,0.3596,0.3585,0.3586,0.3588,0.3607,0.3609,0.3612,0.3581,0.3581,0.3581,0,0,0.3261,0.328,0.3303,0.3322,0.3351,0.3368,0.3373,0.3405,0.3417,0.3449,0.346,0.3483,0.3528,0.3549,0.3565,0.359,0.3598,0.3598,0.3604,0.3622,0.3624,0.3626,0.3635,0.3637,0.3601,0.3601,0.3601,0,0.3261,0.3296,0.3314,0.3338,0.3355,0.3369,0.3392,0.3411,0.3447,0.3459,0.3458,0.3514,0.3536,0.3573,0.3579,0.3592,0.36,0.3594,0.3622,0.3624,0.3626,0.3635,0.3638,0.36,0.36,0.36,0.3601,0,0.3294,0.3319,0.3334,0.3368,0.3387,0.341,0.3433,0.3449,0.346,0.3476,0.3509,0.3535,0.3566,0.3576,0.3587,0.3616,0.3614,0.3617,0.3615,0.3628,0.3637,0.364,0.36,0.36,0.36,0.36,0,0,0.3306,0.3349,0.3354,0.337,0.3403,0.3423,0.3448,0.3478,0.3492,0.3517,0.3538,0.3576,0.3579,0.3598,0.3611,0.3626,0.3644,0.3627,0.3629,0.363,0.3678,0.3676,0.3679,0.365,0.3651,0.3651,0.3675,0,0.3327,0.3371,0.3387,0.3424,0.3447,0.346,0.3482,0.3505,0.3522,0.3544,0.3563,0.3589,0.3591,0.3602,0.3618,0.3639,0.3654,0.3637,0.3671,0.3672,0.3663,0.3684,0.3681,0.3703,0.3679,0.368,0.368,0,0.3357,0.3381,0.3419,0.345,0.346,0.3479,0.3508,0.3529,0.3556,0.3567,0.3588,0.36,0.3627,0.3623,0.3662,0.365,0.3665,0.3677,0.3678,0.3682,0.3677,0.3688,0.371,0.3713,0.3685,0.3685,0.3685,0,0.3361,0.3404,0.3432,0.3445,0.3481,0.3494,0.351,0.3536,0.3553,0.3579,0.359,0.3619,0.3635,0.3657,0.3677,0.3672,0.3714,0.3711,0.3724,0.3723,0.3732,0.3731,0.3757,0.3742,0.3742,0.3742,0.3742,0,0.3383,0.3406,0.3434,0.3452,0.3478,0.3498,0.3523,0.354,0.3564,0.3585,0.3599,0.3619,0.3644,0.3668,0.3684,0.3713,0.372,0.373,0.3734,0.3729,0.3728,0.3739,0.3738,0.3743,0.3742,0.3742,0.3742,0,0.3392,0.3412,0.3444,0.3475,0.3484,0.3502,0.3529,0.3547,0.3564,0.3591,0.3599,0.3625,0.3654,0.3676,0.3713,0.3724,0.3755,0.3759,0.3745,0.3747,0.3759,0.3757,0.3793,0.3798,0.3779,0.3779,0.378,0,0.3405,0.3422,0.3456,0.3471,0.3486,0.351,0.3527,0.3547,0.3565,0.3597,0.3611,0.364,0.3664,0.3709,0.3733,0.3761,0.3767,0.3777,0.3771,0.3765,0.3767,0.3765,0.3767,0.3778,0.3778,0.3778,0.3778,0,0.3425,0.3434,0.3457,0.3484,0.3504,0.3527,0.3549,0.3561,0.3586,0.3605,0.3633,0.3652,0.369,0.3719,0.375,0.3767,0.3777,0.3779,0.3784,0.3779,0.377,0.3775,0.3747,0.3779,0.3779,0.3779,0.3778,0.3778,0.3436,0.3452,0.3478,0.3504,0.3523,0.3544,0.3562,0.3581,0.3605,0.3637,0.3647,0.3677,0.3704,0.3746,0.3764,0.3788,0.3789,0.3795,0.3797,0.3798,0.3797,0.3766,0.3794,0.3794,0.3794,0.3794,0.3794,0,0.3457,0.3474,0.3497,0.3529,0.3549,0.3555,0.3581,0.3598,0.3624,0.3648,0.3671,0.3704,0.3732,0.3758,0.3787,0.3802,0.3807,0.3809,0.3808,0.3812,0.3795,0.3789,0.3804,0.3804,0.3804,0.3804,0.3804,0.3804,0.347,0.3498,0.351,0.3548,0.3565,0.3594,0.3608,0.3628,0.3647,0.3683,0.3706,0.3722,0.3746,0.3778,0.3804,0.3811,0.3821,0.3822,0.383,0.3814,0.3813,0.3812,0.3805,0.3824,0.3824,0.3844,0.3844,0.3845]},{"header":{"parameterUnit":"m.s-1","parameterCategory":1,"la1":30.2991,"la2":30.254,"lo1":-89.0895,"lo2":-89.0444,"dy":0.0017,"dx":0.0017,"nx":28,"ny":28,"refTime":"2023-08-08T09:00:00:Z","depth":0,"parameterNumber":3,"parameterNumberName":"V-component_of_WINDS"},"data":[0,0,0,0,0,0,0,0,0,0,0,0,0,0,0,0,0,0,0,0,0,0,0,0,0,0,0,0,0,0,0,0,0,0,0,0,0,0,0,0,0,0,0,0,0,0,0,0,0,0,0,0,0,0,0,0,0,0,2.9511,2.9511,0,2.9505,2.9505,2.9504,2.9528,2.9529,2.953,2.953,2.952,2.952,2.9519,0,0,0,0,0,0,0,0,0,0,0,0,0,2.9542,2.9541,2.9511,2.9511,2.9511,2.9505,2.9505,2.9504,2.9528,2.9529,2.953,2.9531,2.9521,2.952,2.9519,0,0,0,0,0,0,0,0,0,0,0,0,0,2.9531,2.9541,2.9512,2.9522,2.9523,2.9505,2.9505,2.9504,2.9528,2.9529,2.953,2.9531,2.9521,2.952,2.9518,2.9488,0,0,2.9514,2.9513,0,0,0,0,0,0,0,0,2.9532,2.953,2.9521,2.9522,2.9523,2.9518,2.9512,2.9499,2.9528,2.9526,2.953,2.9531,2.9519,2.9518,2.9514,2.9488,2.9487,2.9514,2.9513,2.9513,2.9512,0,0,0,0,0,0,0,2.9532,2.953,2.9509,2.9521,2.9522,2.9526,2.9526,2.9509,2.9516,2.9526,2.9528,2.9527,2.9519,2.9515,2.9514,2.9487,2.9514,2.9513,2.9512,2.9511,2.9433,2.9432,0,0,0,0,0,0,2.9532,2.9531,2.9509,2.9509,2.953,2.9525,2.9525,2.9519,2.9517,2.9517,2.9526,2.9528,2.9517,2.9515,2.9513,2.9476,2.9513,2.9511,2.951,2.9435,2.9433,2.9432,0,0,0,0,0,0,2.9533,2.953,2.9509,2.952,2.9518,2.9523,2.9516,2.9518,2.9514,2.9516,2.9517,2.9521,2.9518,2.9515,2.9494,2.9476,2.9511,2.9509,2.9436,2.9434,2.9432,2.9402,0,0,0,0,0,0,2.9533,2.953,2.9519,2.952,2.9517,2.9491,2.9515,2.9517,2.9512,2.9514,2.9512,2.9512,2.9518,2.9496,2.9493,2.9475,2.9508,2.9438,2.9435,2.9433,2.9405,2.9399,2.9395,0,0,0,0,0,2.9534,2.9511,2.9519,2.9516,2.9504,2.949,2.9488,2.9497,2.951,2.9499,2.95,2.9512,2.9479,2.9493,2.949,2.9471,2.9439,2.9436,2.9433,2.9407,2.94,2.9395,0,0,0,0,0,0,2.9508,2.9511,2.952,2.9496,2.9492,2.9494,2.948,2.949,2.9482,2.9484,2.9494,2.9493,2.9469,2.9469,2.9485,2.9441,2.9461,2.9457,2.9442,2.9436,2.9431,2.9431,2.9507,0,0,0,0,0,2.9499,2.9488,2.9492,2.947,2.9468,2.9474,2.9468,2.9475,2.9471,2.9469,2.947,2.9465,2.9453,2.9445,2.9434,2.9405,2.9404,2.9391,2.9386,2.9382,2.9378,2.936,2.9354,2.9423,2.9423,2.9423,0,0,2.9481,2.9482,2.9474,2.9465,2.9463,2.945,2.9473,2.9458,2.9448,2.9467,2.9446,2.9446,2.9441,2.9415,2.9404,2.9414,2.9359,2.9378,2.9375,2.9373,2.9356,2.935,2.9344,2.9421,2.9421,2.9421,0,0,2.9442,2.9442,2.9423,2.9421,2.9417,2.9421,2.9417,2.9416,2.9417,2.9397,2.941,2.9398,2.9378,2.9373,2.9368,2.9325,2.9335,2.9322,2.9295,2.9278,2.9272,2.9268,2.925,2.9244,2.9318,2.9318,2.9318,0,2.9419,2.9401,2.9412,2.9396,2.9391,2.9408,2.9388,2.9385,2.9378,2.9373,2.9385,2.9359,2.9357,2.9329,2.9319,2.9315,2.9308,2.9321,2.9273,2.9268,2.9263,2.9247,2.924,2.9316,2.9316,2.9317,2.9317,0,2.9373,2.936,2.9345,2.9338,2.9331,2.9313,2.932,2.9312,2.9319,2.9321,2.9299,2.9297,2.9286,2.928,2.9287,2.9252,2.9258,2.9271,2.9291,2.9255,2.9239,2.9233,2.9314,2.9314,2.9315,2.9315,0,0,2.9315,2.9315,2.9309,2.9305,2.9302,2.9292,2.9274,2.9264,2.9255,2.925,2.9233,2.9216,2.9227,2.9221,2.9228,2.9213,2.9176,2.9227,2.9227,2.9216,2.9135,2.9123,2.9116,2.9183,2.9182,2.9181,2.9134,0,2.9274,2.9245,2.9254,2.9223,2.921,2.9226,2.9211,2.9206,2.9208,2.9196,2.9197,2.9184,2.9201,2.9197,2.9183,2.9184,2.9159,2.9187,2.9166,2.9165,2.9165,2.9108,2.9097,2.9052,2.9128,2.9128,2.9127,0,2.9223,2.9215,2.9184,2.9182,2.9177,2.9162,2.9152,2.9142,2.9136,2.9138,2.9131,2.9141,2.9121,2.9143,2.9115,2.9133,2.9125,2.9124,2.9122,2.9119,2.9142,2.9101,2.9039,2.9031,2.9118,2.9118,2.9119,0,2.9181,2.9164,2.9142,2.9138,2.9136,2.9125,2.9124,2.912,2.9112,2.9103,2.9098,2.9087,2.908,2.907,2.9075,2.9091,2.9045,2.9068,2.9045,2.9044,2.9033,2.9033,2.8966,2.9031,2.9031,2.9032,2.9032,0,2.9133,2.9113,2.9123,2.9109,2.9086,2.9096,2.9072,2.9072,2.9069,2.9054,2.9068,2.9053,2.9062,2.9048,2.9051,2.9026,2.9024,2.9023,2.9024,2.9021,2.902,2.9014,2.9016,2.903,2.903,2.903,2.9031,0,2.9082,2.9089,2.9066,2.9066,2.9065,2.9047,2.9047,2.9033,2.9036,2.9017,2.9013,2.9016,2.9,2.9005,2.8987,2.899,2.8957,2.8963,2.8959,2.8959,2.8935,2.8936,2.886,2.8849,2.8923,2.8923,2.8922,0,2.9051,2.9035,2.9033,2.9025,2.9022,2.9009,2.9001,2.901,2.9001,2.8993,2.898,2.8965,2.8954,2.8927,2.8927,2.8913,2.8917,2.8891,2.8915,2.8911,2.8914,2.8914,2.8911,2.8886,2.8885,2.8884,2.8884,0,2.8992,2.8996,2.8985,2.8975,2.8965,2.8957,2.895,2.8942,2.8951,2.894,2.8924,2.8915,2.8897,2.8881,2.8868,2.8865,2.8874,2.8876,2.887,2.8865,2.8862,2.8861,2.8943,2.8878,2.8878,2.8879,2.8879,2.8879,2.8948,2.8935,2.8931,2.8917,2.8913,2.8906,2.8893,2.8894,2.8881,2.8868,2.8874,2.8854,2.8848,2.8831,2.8826,2.881,2.882,2.8811,2.8808,2.8805,2.8801,2.8867,2.8808,2.8808,2.8809,2.8809,2.8809,0,2.8889,2.8887,2.8875,2.8865,2.8854,2.8866,2.8859,2.8848,2.8831,2.8825,2.8814,2.8794,2.8778,2.8777,2.8762,2.8749,2.8753,2.8744,2.8744,2.8743,2.8795,2.8801,2.8741,2.8741,2.8741,2.8741,2.8741,2.8741,2.8857,2.8833,2.8836,2.881,2.8808,2.879,2.8785,2.8777,2.8772,2.875,2.8738,2.8737,2.8732,2.8716,2.8702,2.8702,2.8694,2.8684,2.8685,2.8733,2.8739,2.8746,2.8751,2.8683,2.8682,2.8634,2.8633,2.8633]}]]